Terug naar catalogus

NETSAT-2

ActiefWetenschapPO
NORAD 46507·PAYLOAD·🇩🇪 Germany

Gelanceerd Sep 28, 2020 vanaf Plesetsk Cosmodrome

Loading…

Volgende Passages (komende 24 uur)

TLE

VersSource: Space-Track

Epoch: Sep 14, 2026, 12:16 UTC

1 46507U 20068X   26257.51126758  .00017334  00000-0  31671-3 0  9994
2 46507  97.8610 273.4050 0004762  55.2499 304.9199 15.49460456329552

Volg NETSAT-2 in realtime met AllMySat

Download on the App Store